Stations météo

réclame
Mon MeteoGroup
Straubing, Allemagne (10788): Température de l'air & dewpoint: 14.09.2018 18:00:00 - 20.09.2018 18:00:00 (CEST)Straubing, Allemagne (10788): Température de l'air 5cm & Température de l'air -5cm: 14.09.2018 18:00:00 - 20.09.2018 18:00:00 (CEST)Straubing, Allemagne (10788): Température de l'air -20cm & Température de l'air -100cm: 14.09.2018 18:00:00 - 20.09.2018 18:00:00 (CEST)Straubing, Allemagne (10788): Vitesse du vent & gusts: 14.09.2018 18:00:00 - 20.09.2018 18:00:00 (CEST)Straubing, Allemagne (10788): Direction du vent: 14.09.2018 18:00:00 - 20.09.2018 18:00:00 (CEST)Straubing, Allemagne (10788): reduced air pressure: 14.09.2018 18:00:00 - 20.09.2018 18:00:00 (CEST)Straubing, Allemagne (10788): visibility: 14.09.2018 18:00:00 - 20.09.2018 18:00:00 (CEST)Straubing, Allemagne (10788): Ensoleillement: 14.09.2018 18:00:00 - 20.09.2018 18:00:00 (CEST)Straubing, Allemagne (10788): Quantités de précipitations: 14.09.2018 18:00:00 - 20.09.2018 18:00:00 (CEST)
Date & Time tt [°C] td [°C] tt 5cm [°C] tt -5cm [°C] tt -20cm [°C] tt -100cm [°C] ff [km/h] ff [knt] fx [km/h] fx [knt] dd ppp [hPa] vv [km] sd [min] rr [mm]
20.09.2018 18:00:00 25,2 15,7 24,9 26,0 21,8 18,3 11 6 16 8 E 1017,1 32 60 0,0
20.09.2018 17:00:00 26,2 13,8 27,4 27,4 21,4 18,3 11 6 18 10 ESE 1017,4 25 60 0,0
20.09.2018 16:00:00 26,4 14,4 28,9 28,1 20,9 18,3 9 5 18 10 E 1017,8 34 60 0,0
20.09.2018 15:00:00 25,7 14,0 29,4 28,2 20,3 18,3 11 6 17 9 ESE 1018,4 24 60 0,0
20.09.2018 14:00:00 24,9 14,5 28,9 27,3 19,7 18,3 9 5 17 9 SSE 1019,3 29 60 0,0
20.09.2018 13:00:00 24,2 16,2 28,7 25,7 19,1 18,3 13 7 19 10 E 1019,8 19 60 0,0
20.09.2018 12:00:00 22,0 15,5 26,6 23,7 18,7 18,3 10 6 17 9 E 1021,0 27 60 0,0
20.09.2018 11:00:00 20,7 15,7 24,6 21,3 18,4 18,3 9 5 16 8 E 1021,4 16 60 0,0
20.09.2018 10:00:00 18,6 15,9 21,5 18,6 18,3 18,3 8 5 11 6 E 1021,8 11 60 0,0
20.09.2018 09:00:00 15,3 14,2 16,2 16,2 18,4 18,3 6 3 8 4 E 1022,2 6 60 0,0
20.09.2018 08:00:00 12,2 12,2 12,5 14,7 18,7 18,3 2 1 7 4 N 1022,4 0,2 3 0,0
20.09.2018 07:00:00 11,2 11,1 8,6 14,5 19,0 18,3 4 2 6 4 S 1022,4 1,8 0 0,0
20.09.2018 06:00:00 11,6 11,6 9,4 14,9 19,2 18,3 5 3 6 3 SE 1022,2 0,2 0 0,0
20.09.2018 05:00:00 12,4 12,4 8,9 15,3 19,5 18,3 3 1 5 3 S 1022,1 2,2 0 0,0
20.09.2018 04:00:00 12,2 12,0 10,5 15,7 19,8 18,3 4 2 5 3 SSE 1022,1 8 0 0,0
20.09.2018 03:00:00 14,2 14,2 10,7 16,2 20,1 18,3 1 0 5 3 SE 1021,7 2,4 0 0,0
20.09.2018 02:00:00 13,5 13,5 12,2 16,7 20,4 18,3 8 4 11 6 E 1021,9 2,3 0 0,0
20.09.2018 01:00:00 14,3 14,3 11,9 17,2 20,8 18,3 3 2 5 3 E 1021,9 3,3 0 0,0
20.09.2018 00:00:00 14,6 14,2 12,5 17,9 21,1 18,3 4 2 6 4 ESE 1022,0 5 0 0,0
19.09.2018 23:00:00 16,7 15,2 13,7 18,6 21,4 18,3 5 3 8 5 E 1021,6 12 0 0,0
19.09.2018 22:00:00 16,7 15,0 14,0 19,3 21,7 18,3 7 4 8 5 E 1021,6 15 0 0,0
19.09.2018 21:00:00 17,9 15,0 15,5 20,4 21,9 18,3 6 3 7 4 SSE 1021,2 19 0 0,0
19.09.2018 20:00:00 18,7 14,7 16,1 21,8 22,1 18,3 7 4 9 5 ESE 1020,8 25 0 0,0
19.09.2018 19:00:00 21,0 15,8 19,9 23,8 22,1 18,3 6 4 9 5 E 1020,4 30 59 0,0
19.09.2018 18:00:00 23,2 15,2 23,8 25,9 21,8 18,2 7 4 13 7 ESE 1019,7 39 60 0,0
19.09.2018 17:00:00 23,6 15,7 25,8 27,2 21,5 18,2 9 5 14 8 E 1019,9 20 60 0,0
19.09.2018 16:00:00 23,0 15,3 26,4 27,9 21,0 18,2 10 5 18 10 ESE 1020,3 27 60 0,0
19.09.2018 15:00:00 22,8 15,4 26,9 28,0 20,4 18,2 9 5 16 9 E 1020,5 22 59 0,0
19.09.2018 14:00:00 23,4 14,3 29,4 27,1 19,8 18,2 7 4 13 7 NE 1020,9 34 59 0,0
19.09.2018 13:00:00 22,6 13,9 27,1 24,4 19,5 18,2 4 2 10 5 SSE 1021,4 42 38 0,0
19.09.2018 12:00:00 20,6 14,8 22,4 21,6 19,3 18,2 5 3 14 8 SSW 1021,6 42 3 0,0
19.09.2018 11:00:00 19,4 15,3 20,7 20,3 19,2 18,2 11 6 20 11 S 1021,8 34 3 0,0
19.09.2018 10:00:00 18,5 15,6 20,8 19,2 19,2 18,2 9 5 14 8 S 1021,8 31 12 0,0
19.09.2018 09:00:00 16,5 15,4 16,2 17,7 19,3 18,2 9 5 11 6 SSW 1021,5 21 0 0,0
19.09.2018 08:00:00 16,1 15,1 15,7 17,4 19,5 18,2 7 4 10 5 ESE 1021,1 18 0 0,0
19.09.2018 07:00:00 15,6 15,1 15,1 17,4 19,7 18,2 11 6 14 8 E 1020,8 14 0 0,0
19.09.2018 06:00:00 16,3 15,2 15,6 17,7 19,8 18,2 6 3 14 8 WNW 1020,5 19 0 0,0
19.09.2018 05:00:00 16,6 14,6 16,0 17,9 20,0 18,2 10 6 21 11 WSW 1020,6 34 0 0,0
19.09.2018 04:00:00 16,3 14,5 15,8 18,2 20,2 18,2 13 7 19 10 SSE 1020,3 28 0 0,0
19.09.2018 03:00:00 17,1 14,3 16,7 18,5 20,4 18,2 14 8 24 13 S 1020,6 63 0 0,0
19.09.2018 02:00:00 17,8 13,8 17,1 18,7 20,6 18,2 16 9 22 12 ESE 1020,1 52 0 0,0
19.09.2018 01:00:00 17,9 13,9 16,7 19,0 20,8 18,2 8 4 11 6 SE 1019,5 42 0 0,0
19.09.2018 00:00:00 18,7 14,2 17,6 19,3 21,1 18,2 9 5 20 11 S 1018,5 38 0 0,0
18.09.2018 23:00:00 19,0 14,8 17,6 19,6 21,3 18,2 8 4 23 12 SSW 1017,7 22 0 0,0
18.09.2018 22:00:00 17,5 15,4 16,5 20,0 21,6 18,2 9 5 13 7 SSW 1017,5 13 0 0,0
18.09.2018 21:00:00 18,5 15,1 16,7 21,1 21,8 18,2 9 5 10 5 S 1016,9 15 0 0,0
18.09.2018 20:00:00 22,4 15,9 18,5 22,6 21,9 18,2 3 2 8 5 E 1015,8 20 0 0,0
18.09.2018 19:00:00 23,9 16,3 22,3 24,5 21,8 18,2 8 4 12 6 E 1015,2 26 60 0,0
18.09.2018 18:00:00 25,9 16,5 25,7 26,3 21,5 18,2 9 5 15 8 E 1015,0 28 60 0,0
18.09.2018 17:00:00 26,5 16,1 27,9 27,9 21,1 18,2 9 5 16 9 E 1015,1 24 60 0,0
18.09.2018 16:00:00 27,1 15,6 30,4 28,6 20,5 18,2 4 2 15 8 ENE 1015,6 25 60 0,0
18.09.2018 15:00:00 26,1 15,5 29,4 28,5 19,8 18,2 6 3 17 9 SE 1016,1 19 60 0,0
18.09.2018 14:00:00 24,8 16,2 29,8 27,7 19,1 18,2 6 4 20 11 NE 1016,8 20 60 0,0
18.09.2018 13:00:00 23,6 15,5 28,4 26,1 18,5 18,2 9 5 15 8 E 1017,4 16 60 0,0
18.09.2018 12:00:00 22,9 15,7 28,2 24,0 18,0 18,2 4 2 11 6 ENE 1017,7 13 60 0,0
18.09.2018 11:00:00 20,5 15,3 24,7 21,2 17,7 18,2 9 5 16 8 E 1018,3 11 60 0,0
18.09.2018 10:00:00 18,7 14,8 21,7 18,4 17,6 18,2 6 4 11 6 E 1018,5 11 60 0,0
18.09.2018 09:00:00 16,1 13,0 17,3 15,8 17,7 18,2 3 2 7 4 E 1018,8 7 60 0,0
18.09.2018 08:00:00 12,0 11,0 12,0 14,0 18,0 18,2 6 3 7 4 SSW 1019,3 8 18 0,0
18.09.2018 07:00:00 11,5 11,2 9,1 13,9 18,2 18,2 4 2 8 4 WSW 1018,9 8 0 0,0
18.09.2018 06:00:00 11,7 11,4 9,3 14,2 18,5 18,2 2 1 5 3 NW 1018,7 5 0 0,0
18.09.2018 05:00:00 11,1 10,8 9,0 14,6 18,8 18,2 0 0 4 2 N 1018,9 3,5 0 0,0
18.09.2018 04:00:00 11,7 11,0 10,3 15,0 19,1 18,2 4 2 8 4 SW 1018,8 7 0 0,0
18.09.2018 03:00:00 11,9 11,5 10,9 15,4 19,4 18,2 6 4 8 5 S 1018,8 7 0 0,0
18.09.2018 02:00:00 13,9 12,9 11,4 16,0 19,7 18,3 5 3 6 4 SSW 1018,7 10 0 0,0
18.09.2018 01:00:00 14,0 12,6 11,5 16,6 20,0 18,3 0 0 8 4 N 1019,1 13 0 0,0
18.09.2018 00:00:00 16,2 13,5 13,7 17,3 20,4 18,3 5 3 8 5 S 1019,0 16 0 0,0
17.09.2018 23:00:00 15,5 13,7 12,0 18,1 20,6 18,3 4 2 5 3 SSE 1019,2 12 0 0,0
17.09.2018 22:00:00 17,9 14,2 14,1 19,0 20,9 18,3 0 0 7 4 N 1019,0 16 0 0,0
17.09.2018 21:00:00 19,7 14,7 15,7 20,1 21,1 18,3 4 2 5 3 SSE 1018,7 20 0 0,0
17.09.2018 20:00:00 20,4 15,1 16,7 21,5 21,2 18,3 5 3 11 6 ESE 1018,4 23 0 0,0
17.09.2018 19:00:00 22,0 15,8 20,5 23,5 21,2 18,3 7 4 16 9 E 1018,1 20 55 0,0
17.09.2018 18:00:00 24,3 15,9 24,2 25,3 20,9 18,3 13 7 16 9 E 1017,9 22 60 0,0
17.09.2018 17:00:00 24,9 14,7 26,1 26,8 20,5 18,3 10 5 16 9 E 1018,2 24 59 0,0
17.09.2018 16:00:00 24,7 14,7 26,5 28,5 19,9 18,3 10 5 17 9 E 1018,7 25 60 0,0
17.09.2018 15:00:00 25,1 14,6 28,2 28,3 19,2 18,3 9 5 16 9 ESE 1019,2 24 60 0,0
17.09.2018 14:00:00 24,1 14,7 28,7 27,5 18,5 18,3 7 4 16 9 ESE 1020,0 19 59 0,0
17.09.2018 13:00:00 23,5 14,8 26,9 25,4 17,8 18,3 10 6 20 11 SSE 1020,7 18 60 0,0
17.09.2018 12:00:00 21,8 16,0 26,1 23,0 17,4 18,3 9 5 18 10 ESE 1021,2 12 60 0,0
17.09.2018 11:00:00 19,5 14,7 23,3 20,3 17,0 18,3 11 6 16 9 E 1022,1 11 60 0,0
17.09.2018 10:00:00 18,2 14,3 20,7 17,6 17,0 18,3 12 6 16 9 ESE 1022,4 10 60 0,0
17.09.2018 09:00:00 15,8 13,8 17,2 15,1 17,1 18,3 9 5 12 7 ESE 1022,6 10 60 0,0
17.09.2018 08:00:00 11,5 10,4 11,4 13,3 17,3 18,3 4 2 5 3 SSW 1023,5 10 15 0,0
17.09.2018 07:00:00 11,7 11,0 9,3 13,2 17,5 18,3 4 2 5 3 SW 1023,1 11 0 0,0
17.09.2018 06:00:00 10,4 9,6 9,5 13,6 17,8 18,3 4 2 6 4 S 1023,0 12 0 0,0
17.09.2018 05:00:00 10,9 10,1 8,7 14,0 18,1 18,3 0 0 9 5 N 1022,5 9 0 0,0
17.09.2018 04:00:00 11,7 10,5 10,2 14,5 18,3 18,3 5 3 5 3 S 1022,3 11 0 0,0
17.09.2018 03:00:00 12,8 10,8 10,6 15,2 18,5 18,3 2 1 9 5 SSE 1022,5 17 0 0,0
17.09.2018 02:00:00 13,9 11,3 12,2 15,8 18,8 18,4 6 3 9 5 NE 1022,3 20 0 0,0
17.09.2018 01:00:00 13,6 11,5 13,1 15,5 19,1 18,4 6 4 10 5 SSW 1022,5 20 0 0,0
17.09.2018 00:00:00 13,2 11,0 11,0 16,0 19,4 18,4 4 2 9 5 SW 1022,3 19 0 0,0
16.09.2018 23:00:00 15,4 11,0 13,1 16,6 19,7 18,4 7 4 9 5 W 1022,2 29 0 0,0
16.09.2018 22:00:00 14,6 11,5 12,4 17,3 19,9 18,4 5 3 8 4 SW 1022,1 28 0 0,0
16.09.2018 21:00:00 17,0 11,2 13,7 18,3 20,2 18,4 3 2 4 2 SW 1021,5 38 0 0,0
16.09.2018 20:00:00 16,5 11,3 12,7 19,9 20,3 18,4 0 0 4 2 N 1021,3 41 0 0,0
16.09.2018 19:00:00 21,4 10,8 17,6 22,2 20,2 18,4 3 1 3 2 WSW 1020,4 43 18 0,0
16.09.2018 18:00:00 22,4 9,5 22,2 24,3 19,9 18,4 3 2 11 6 ESE 1020,2 47 60 0,0
16.09.2018 17:00:00 22,9 10,4 24,7 25,9 19,5 18,4 4 2 11 6 E 1020,5 38 60 0,0
16.09.2018 16:00:00 22,9 10,2 27,0 26,7 18,9 18,4 5 3 15 8 E 1021,0 43 60 0,0
16.09.2018 15:00:00 22,2 10,3 27,0 26,4 18,2 18,4 7 4 16 9 ENE 1021,6 32 60 0,0
16.09.2018 14:00:00 21,0 7,8 25,9 25,3 17,5 18,4 7 4 18 10 ENE 1022,5 24 60 0,0
16.09.2018 13:00:00 20,4 8,5 24,8 23,6 16,9 18,4 12 7 20 11 E 1023,1 29 60 0,0
16.09.2018 12:00:00 19,0 9,9 23,6 21,3 16,4 18,4 9 5 16 8 ESE 1023,9 17 60 0,0
16.09.2018 11:00:00 17,7 9,7 20,7 18,7 16,1 18,4 3 1 8 5 E 1024,5 24 60 0,0
16.09.2018 10:00:00 14,7 9,2 16,7 15,7 16,0 18,4 4 2 5 3 SE 1024,8 17 60 0,0
16.09.2018 09:00:00 11,7 8,5 13,5 13,0 16,1 18,4 4 2 6 3 NNE 1025,3 14 60 0,0
16.09.2018 08:00:00 8,7 7,3 8,4 10,8 16,4 18,4 3 2 5 3 WSW 1025,9 11 26 0,0
16.09.2018 07:00:00 6,8 5,8 4,9 10,6 16,8 18,4 3 2 6 3 WSW 1026,1 14 0 0,0
16.09.2018 06:00:00 7,7 6,7 5,7 11,0 17,1 18,4 5 3 7 4 SW 1025,7 15 0 0,0
16.09.2018 05:00:00 8,0 7,2 5,2 11,4 17,5 18,4 5 3 10 6 SW 1025,9 13 0 0,0
16.09.2018 04:00:00 8,2 7,1 6,6 11,9 17,8 18,4 6 3 9 5 SSW 1026,2 16 0 0,0
16.09.2018 03:00:00 8,3 6,8 6,3 12,5 18,2 18,4 2 1 7 4 WSW 1026,5 16 0 0,0
16.09.2018 02:00:00 11,3 8,2 8,4 13,0 18,6 18,4 5 3 13 7 W 1026,3 24 0 0,0
16.09.2018 01:00:00 9,4 8,0 8,2 13,5 18,9 18,4 5 3 10 5 SW 1026,7 16 0 0,0
16.09.2018 00:00:00 10,6 8,8 8,8 14,2 19,3 18,4 9 5 10 5 SSW 1026,3 18 0 0,0
15.09.2018 23:00:00 9,9 7,7 8,1 15,1 19,7 18,4 5 3 8 4 WSW 1026,3 13 0 0,0
15.09.2018 22:00:00 12,0 9,1 10,6 16,1 20,1 18,4 4 2 9 5 SSW 1025,5 22 0 0,0
15.09.2018 21:00:00 13,7 9,5 11,1 17,2 20,4 18,4 4 2 6 4 WSW 1024,9 27 0 0,0
15.09.2018 20:00:00 17,7 8,7 13,8 18,7 20,7 18,4 5 3 10 5 WNW 1023,8 42 7 0,0
15.09.2018 19:00:00 19,9 7,8 18,0 20,8 20,8 18,4 7 4 21 11 NW 1022,7 41 60 0,0
15.09.2018 18:00:00 21,2 7,4 21,4 22,9 20,7 18,4 10 5 26 14 WNW 1022,3 41 57 0,0
15.09.2018 17:00:00 21,5 8,4 22,9 24,6 20,4 18,4 14 7 29 16 WNW 1022,2 46 57 0,0
15.09.2018 16:00:00 22,1 9,3 25,1 25,5 20,0 18,4 14 8 31 17 WNW 1022,1 36 56 0,0
15.09.2018 15:00:00 22,0 10,7 25,9 25,1 19,6 18,4 18 10 39 21 W 1022,3 46 57 0,0
15.09.2018 14:00:00 21,2 11,5 25,7 24,0 19,2 18,4 12 7 22 12 WNW 1022,5 24 45 0,0
15.09.2018 13:00:00 20,5 12,1 26,4 23,5 18,7 18,4 10 5 20 11 W 1022,6 23 48 0,0
15.09.2018 12:00:00 19,1 13,9 21,5 22,2 18,4 18,4 11 6 19 10 W 1022,8 11 38 0,0
15.09.2018 11:00:00 18,0 15,0 21,6 20,1 18,3 18,4 8 4 16 9 WNW 1022,9 7 16 0,0
15.09.2018 10:00:00 16,5 15,3 18,7 17,8 18,3 18,4 8 4 15 8 WNW 1022,8 7 1 0,0
15.09.2018 09:00:00 16,0 15,2 16,8 17,2 18,3 18,4 5 3 8 4 W 1022,1 4,9 0 0,0
15.09.2018 08:00:00 15,3 15,1 15,3 16,5 18,4 18,4 3 2 6 3 NNE 1021,6 2,2 0 0,0
15.09.2018 07:00:00 14,9 14,8 14,8 16,4 18,5 18,4 3 2 8 4 E 1021,1 2,5 0 0,0
15.09.2018 06:00:00 15,0 14,8 14,9 16,5 18,7 18,4 7 4 8 4 S 1020,6 3,8 0 0,3
15.09.2018 05:00:00 14,9 14,7 14,8 16,5 18,8 18,4 4 2 6 4 SSE 1020,6 2,6 0 0,1
15.09.2018 04:00:00 15,2 14,8 15,0 16,4 19,0 18,4 2 1 6 4 E 1020,6 4,7 0 0,0
15.09.2018 03:00:00 14,1 13,8 13,6 16,2 19,2 18,4 6 4 10 5 SE 1020,7 5 0 0,0
15.09.2018 02:00:00 14,9 14,6 14,5 16,8 19,4 18,4 8 4 9 5 E 1020,3 4,0 0 0,0
15.09.2018 01:00:00 15,2 14,7 14,0 17,1 19,6 18,4 3 1 8 5 SE 1020,5 7 0 0,0
15.09.2018 00:00:00 15,4 14,5 14,7 17,5 19,8 18,4 5 3 7 4 SSE 1020,5 9 0 0,0
14.09.2018 23:00:00 16,4 14,5 15,3 17,8 20,0 18,4 4 2 13 7 NE 1020,2 15 0 0,0
14.09.2018 22:00:00 16,4 15,3 16,1 18,3 20,1 18,4 6 4 13 7 SSW 1020,1 13 0 0,0
14.09.2018 21:00:00 17,1 14,5 16,4 18,7 20,3 18,4 6 3 8 4 SW 1019,9 20 0 0,0
14.09.2018 20:00:00 17,8 14,0 16,6 19,4 20,4 18,4 4 2 5 3 SW 1019,4 22 0 0,0
14.09.2018 19:00:00 19,0 13,3 16,4 20,7 20,4 18,4 4 2 9 5 SW 1019,0 27 33 0,0
14.09.2018 18:00:00 20,4 12,3 21,2 22,6 20,2 18,4 6 3 13 7 W 1018,7 31 60 0,0

tt = Température de l'air
td = dewpoint
tt 5cm = Température de l'air 5cm
tt -5cm = Température de l'air -5cm
tt -20cm = Température de l'air -20cm
tt -100cm = Température de l'air -100cm
ff = Vitesse du vent
fx = gusts
dd = Direction du vent
ppp = reduced air pressure
vv = visibility
sd = Ensoleillement
rr = Quantités de précipitations

stations d'obs. à proximité